{"data":{"norad_id":60462,"intl_designator":"2024-148E","name":"YAOGAN-43 01E","alt_names":[],"object_type":"PAYLOAD","status":"ACTIVE","operator":null,"country":"PRC","launch_date":"2024-08-16","launch_site_code":"XICLF","launch_vehicle":null,"mission":null,"orbit_class":"UNKNOWN","rcs_meters":null,"size_class":null,"mass_kg":null,"dimensions":null,"purposes":[],"wikipedia_slug":null,"has_3d_model":false,"image_url":null,"decayed_at":null,"tle_current":{"epoch":"2026-09-22T16:32:24.587808Z","epoch_age_seconds":97171,"freshness":"FRESH","line1":"1 60462U 24148E   26265.68917347  .00006877  00000+0  28593-3 0  9990","line2":"2 60462  34.9923 266.9449 0002192  17.5709 342.5081 15.23095514117033","mean_motion":15.23095514,"eccentricity":0.0002192,"inclination_deg":34.9923,"raan_deg":266.9449,"arg_perigee_deg":17.5709,"mean_anomaly_deg":342.5081,"bstar":0.00028593,"rev_number":11703,"period_min":94.544300522442,"perigee_km":495.00327435927,"apogee_km":498.01711969044,"semimajor_km":6874.6471970249,"source":"CELESTRAK","updated_at":"2026-09-23T09:00:20.619214Z"}}}